Weather History for Campo, CA

Change the Weather History Date:

Saturday, November 17, 2012

  Actual Average Record
Temperature  
Mean Temperature 55 °F 53 °F  
Max Temperature 66 °F 69 °F 86 °F (1995)
Min Temperature 44 °F 36 °F 22 °F (1971)
Degree Days  
Heating Degree Days 10 12  
Month to date heating degree days 170 174  
Since 1 July heating degree days 306 384  
Cooling Degree Days 0 0  
Month to date cooling degree days 0 0  
Year to date cooling degree days 942 839  
Growing Degree Days 4 (Base 50)    
Moisture  
Dew Point 45 °F    
Average Humidity 73    
Maximum Humidity 93    
Minimum Humidity 52    
Precipitation  
Precipitation 0.00 in 0.04 in 0.63 in (1965)
Month to date precipitation 0.43 0.51  
Year to date precipitation 8.24 12.84  
Since 1 July precipitation 2.19 2.69  
Snow  
Snow 0.00 in - - ()
Month to date snowfall 0.0  
Year to date snowfall 0.0  
Since 1 July snowfall 0.0  
Snow Depth 0.00 in    
Sea Level Pressure  
Sea Level Pressure 30.02 in    
Wind  
Wind Speed 7 mph (WSW)    
Max Wind Speed 22 mph    
Max Gust Speed 26 mph    
T = Trace of Precipitation, MM = Missing Value Source: NWS Daily Summary

Daily Weather History Graph

Daily Weather History Graph

Search for Another Location

Airport:

Trip Planner

Search our weather history database for the weather conditions in past years. The results will help you decide how hot, cold, wet, or windy it might be!

Date:

Astronomy

Nov. 17, 2012 Rise Set
Actual Time 6:18 AM PST 4:43 PM PST
Civil Twilight 5:51 AM PST 5:09 PM PST
Nautical Twilight 5:21 AM PST 5:39 PM PST
Astronomical Twilight 4:52 AM PST 6:08 PM PST
Moon 10:06 AM PST (11/17) 8:57 PM PST (11/17)
Length of Visible Light 11h 17m
Length of Day
10h 25m
Waxing Crescent, 21% of the Moon is Illuminated
Nov 17
Waxing Crescent
Nov 20
First Quarter
Nov 28
Full
Dec 6
Last Quarter
Dec 13
New

Hourly Weather History & Observations

Time (PST) Temp. Windchill Dew Point Humidity Pressure Visibility Wind Dir Wind Speed Gust Speed Precip Events Conditions
12:52 AM 46.9 °F - 43.0 °F 86% 30.01 in - Calm Calm - N/A   Unknown
1:52 AM 48.0 °F - 43.0 °F 83% 30.00 in - Calm Calm - N/A   Unknown
2:52 AM 46.9 °F - 43.0 °F 86% 30.00 in - Calm Calm - N/A   Unknown
3:52 AM 46.9 °F - 43.0 °F 86% 29.99 in - Calm Calm - N/A   Unknown
4:52 AM 46.0 °F - 43.0 °F 89% 30.00 in - Calm Calm - N/A   Unknown
5:52 AM 46.0 °F - 42.1 °F 86% 30.02 in - Calm Calm - N/A   Unknown
6:52 AM 46.9 °F - 44.1 °F 90% 30.04 in - Calm Calm - N/A   Unknown
7:52 AM 54.0 °F - 48.9 °F 83% 30.04 in - Calm Calm - N/A   Unknown
8:52 AM 60.1 °F - 50.0 °F 69% 30.04 in - West 11.5 mph - N/A   Unknown
9:52 AM 62.1 °F - 48.0 °F 60% 30.04 in - West 12.7 mph - N/A   Unknown
10:52 AM 64.0 °F - 48.0 °F 56% 30.04 in - SW 15.0 mph 24.2 mph N/A   Unknown
11:52 AM 64.9 °F - 46.9 °F 52% 30.02 in - SW 18.4 mph - N/A   Unknown
12:52 PM 64.0 °F - 46.0 °F 52% 30.00 in - SW 13.8 mph 19.6 mph N/A   Unknown
1:52 PM 64.9 °F - 46.9 °F 52% 29.99 in - SW 19.6 mph 25.3 mph N/A   Unknown
2:52 PM 62.1 °F - 46.0 °F 56% 30.00 in - SW 17.3 mph - N/A   Unknown
3:52 PM 62.1 °F - 46.9 °F 58% 30.00 in - WSW 12.7 mph - N/A   Unknown
4:52 PM 57.9 °F - 48.0 °F 70% 30.01 in - West 8.1 mph - N/A   Unknown
5:52 PM 52.0 °F - 46.9 °F 83% 30.03 in - Calm Calm - N/A   Unknown
6:52 PM 51.1 °F - 46.0 °F 83% 30.04 in - NE 3.5 mph - N/A   Unknown
7:52 PM 48.0 °F - 45.0 °F 89% 30.04 in - Calm Calm - N/A   Unknown
8:52 PM 45.0 °F - 42.1 °F 90% 30.05 in - Calm Calm - N/A   Unknown
9:52 PM 45.0 °F - 42.1 °F 90% 30.05 in - Calm Calm - N/A   Unknown
10:52 PM 45.0 °F 43.5 °F 42.1 °F 90% 30.05 in - NE 3.5 mph - N/A   Unknown
11:52 PM 43.0 °F 40.3 °F 39.9 °F 89% 30.05 in - NE 4.6 mph - N/A   Unknown